Location: Shepherdstown, WV
(39.4326°N, 77.8042°W)
Time: 22:21:14
(UTC-04:00)

Vanguard 2 Rocket - All Passes

Search period start: 05 August 2021 00:00
Search period end: 15 August 2021 00:00
Orbit: 555 x 3325 km, 32.9° (Epoch: 05 August)

Date Brightness Start Highest point End Pass type
(mag) Time Alt. Az. Time Alt. Az. Time Alt. Az.
05 Aug - 06:26:26 10° SW 06:30:47 22° SSE 06:34:09 10° ESE daylight
05 Aug - 08:39:19 10° WSW 08:43:12 34° S 08:46:49 10° ESE daylight
05 Aug - 10:52:12 10° WSW 10:55:28 24° SSW 10:59:23 10° SE daylight
06 Aug - 05:26:38 10° SSW 05:31:18 19° SSE 05:34:50 10° ESE visible
06 Aug - 07:39:33 10° WSW 07:44:01 32° S 07:47:37 10° ESE daylight
06 Aug - 09:52:48 10° WSW 09:56:16 29° S 09:59:56 10° SE daylight
06 Aug - 12:06:42 10° SW 12:08:44 13° SSW 12:11:02 10° S daylight
07 Aug - 04:26:56 10° SSW 04:31:38 16° SSE 04:35:15 10° SE visible
07 Aug - 06:39:29 10° SW 06:44:44 30° S 06:48:33 10° ESE daylight
07 Aug - 08:53:12 10° WSW 08:57:07 33° S 09:00:42 10° ESE daylight
07 Aug - 11:06:47 10° WSW 11:09:21 16° SSW 11:12:16 10° SSE daylight
08 Aug - 03:27:37 10° S 03:31:44 13° SSE 03:35:06 10° SE visible
08 Aug - 05:39:10 10° SW 05:45:17 28° SSE 05:49:30 10° ESE visible
08 Aug - 07:53:16 10° WSW 07:57:56 37° S 08:01:38 10° ESE daylight
08 Aug - 10:07:03 10° WSW 10:10:08 21° SSW 10:13:19 10° SE daylight
09 Aug - 02:29:54 10° SSE 02:31:36 10° SSE 02:33:10 10° SE visible
09 Aug - 04:38:42 10° SW 04:45:39 25° SSE 04:50:22 10° ESE visible
09 Aug - 06:52:58 10° WSW 06:58:41 38° S 07:02:41 10° ESE daylight
09 Aug - 09:07:15 10° WSW 09:10:59 28° SSW 09:14:23 10° SE daylight
10 Aug - 03:38:14 10° SSW 03:45:47 22° SSE 03:51:00 10° ESE visible
10 Aug - 05:52:19 10° WSW 05:59:16 37° S 06:03:46 10° ESE visible
10 Aug - 08:07:09 10° WSW 08:11:50 35° S 08:15:30 10° ESE daylight
10 Aug - 10:21:52 10° SW 10:23:55 14° SSW 10:26:01 10° S daylight
11 Aug - 02:38:01 10° SSW 02:45:39 19° SSE 02:51:12 10° ESE visible
11 Aug - 04:51:23 10° SW 04:59:39 35° S 05:04:50 10° ESE visible
11 Aug - 07:06:41 10° WSW 07:12:35 41° S 07:16:41 10° ESE daylight
11 Aug - 09:21:30 10° WSW 09:24:46 20° SSW 09:27:45 10° SSE daylight
12 Aug - 01:38:28 10° S 01:45:16 15° SSE 01:50:37 10° ESE visible
12 Aug - 03:50:19 10° SW 03:59:48 32° SSE 04:05:44 10° ESE visible
12 Aug - 06:05:49 10° WSW 06:13:13 44° S 06:17:52 10° ESE daylight
12 Aug - 08:21:10 10° WSW 08:25:40 29° SSW 08:29:12 10° SE daylight
13 Aug - 00:40:42 10° SSE 00:44:38 11° SSE 00:48:08 10° SE night (unlit)
13 Aug - 02:49:17 10° SSW 02:59:40 28° SSE 03:06:23 10° ESE visible
13 Aug - 05:04:35 10° WSW 05:13:36 44° S 05:19:01 10° ESE visible
13 Aug - 07:20:33 10° W 07:26:28 39° SSW 07:30:33 10° ESE daylight
13 Aug - 09:36:23 10° WSW 09:38:26 13° SSW 09:40:22 10° S daylight
14 Aug - 01:48:31 10° SSW 01:59:15 24° SSE 02:06:38 10° ESE visible
14 Aug - 04:03:05 10° SW 04:13:45 42° S 04:20:03 10° E visible
14 Aug - 06:19:31 10° WSW 06:27:07 47° S 06:31:51 10° ESE daylight
14 Aug - 08:35:24 10° WSW 08:39:22 22° SSW 08:42:35 10° SSE daylight
